Regional Weather Roundup
Issued by NWS Charleston, SC

Current Version | Previous Version | Graphics & Text | Print | Product List | Glossary On
Versions: 1 2 3 4 5 6 7 8 9 10 11 12 13 14 15 16 17 18 19 20 21 22 23 24 25 26 27 28 29 30 31 32 33 34 35 36 37 38 39 40 41 42 43 44 45 46 47 48 49 50
000
ASUS42 KCHS 280313
RWRCHS

REGIONAL WEATHER ROUNDUP
NATIONAL WEATHER SERVICE CHARLESTON SC
1100 PM EDT SAT AUG 27 2016

NOTE: "FAIR" INDICATES FEW OR NO CLOUDS BELOW 12,000 FEET WITH NO
SIGNIFICANT WEATHER AND/OR OBSTRUCTIONS TO VISIBILITY.

NOT ALL STATIONS ARE QUALITY CONTROLLED. USE DATA WITH CAUTION...
ESPECIALLY DEWPOINT OBSERVATIONS.

SCZ027-030-031-034>040-042>050-280400-
...SOUTHEAST SOUTH CAROLINA...

CITY           SKY/WX    TMP DP  RH WIND       PRES   REMARKS
N CHARLESTON   CLEAR     78  71  79 NE3       30.10S
WATERFRONT PRK   N/A     82  76  82 E6        30.07R
MOUNT PLEASANT FAIR      75  73  94 CALM      30.10S
JOHNS ISLAND   FAIR      79  73  83 CALM      30.10S
PINOPOLIS        N/A     79  73  83 CALM      30.04R
MONCKS CORNER  FAIR      73  70  88 CALM      30.11S
SUMMERVILLE    FAIR      73  72  94 CALM      30.11S
BEAUFORT MCAS  CLEAR     80  74  81 NE5       30.09S
BEAUFORT ARPT  FAIR      79  73  83 E3        30.08F
HILTON HEAD IS PTCLDY    82  75  78 NE8       30.09S
WALTERBORO     CLEAR     77  77 100 CALM      30.11S
ALLENDALE      FAIR      77  72  83 CALM      30.10R

...SOUTHERN MIDLANDS AND PEE DEE...

CITY           SKY/WX    TMP DP  RH WIND       PRES   REMARKS
GEORGETOWN     FAIR      75  72  88 CALM      30.11S
KINGSTREE      FAIR      73  68  83 CALM      30.11S
ORANGEBURG     CLEAR     76  71  85 S3        30.11R
BARNWELL       NOT AVBL
AIKEN          FAIR      79  66  65 SE5       30.15R
MANNING        FAIR      75  70  83 CALM      30.10F
COLUMBIA       PTCLDY    86  70  58 E5        30.10R HX  90
SUMTER         PTCLDY    81  70  70 E2        30.09R
FLORENCE       MOCLDY    81  73  76 NE5       30.13R
MYRTLE BEACH   NOT AVBL
N MYRTLE BEACH PTCLDY    82  73  74 E3        30.10S

$$

GAZ063-065-086>088-099>101-113>116-118-119-134>141-150-280400-
...SOUTHEAST GEORGIA...

CITY           SKY/WX    TMP DP  RH WIND       PRES   REMARKS
SAVANNAH ARPT  CLEAR     79  73  82 E5        30.08R
HUNTER AAF     CLEAR     80  79  97 E2        30.06R
FORT STEWART   CLEAR     77  73  85 NE5       30.06R
STATESBORO     CLEAR     79  74  84 CALM      30.09R
SYLVANIA       NOT AVBL
CLAXTON        FAIR      77  74  92 CALM      30.09R

...CSRA...CENTRAL AND FAR SOUTHEAST GEORGIA...

CITY           SKY/WX    TMP DP  RH WIND       PRES   REMARKS
THOMSON        CLEAR     80  74  82 MISG      30.15R
AUGUSTA-BUSH   CLEAR     77  70  79 SE5       30.09R
AUGUSTA-DANIEL CLEAR     85  69  58 CALM      30.12R
SWAINSBORO     FAIR      81  68  65 SE3       30.11R
VIDALIA        CLEAR     79  75  89 E5        30.09R
EASTMAN        FAIR      82  59  46 SE3       30.11R
HAZLEHURST     FAIR      81  74  79 CALM      30.08R
ALMA           CLEAR     76  72  87 CALM      30.07R
WAYCROSS         N/A     81  78  93 E5        30.06S
JESUP          FAIR      79  77  94 CALM      30.08R
BAXLEY         FAIR      79  79 100 E5        30.08R
BRUNSWICK      CLEAR     79  77  94 NE3       30.07R
SAINT SIMONS   PTCLDY    82  76  81 E12       30.05R

$$

SCZ027-028-034-036>038-045-046-048>050-GAZ119-141-280400-
...LAKE AND SUPPLEMENTAL COASTAL OBSERVATIONS...

STATION/POSITION TIME  TEMP    WIND        PRES    WAVE   SWELL
                       AIR SEA DIR/SP/G            HT/PER HT/PER/DIR
                 (UTC) (F)     (DEG/KT/KT) (MB)    (FT/S) (FT/S/D)
WINYAH BAY       NOT AVBL
LAKE MURRAY      0200   84      40/  5/  6 1019.0R
ACE BASIN NERRS  NOT AVBL
FORT PULASKI     0200   83 86   60/ 13/ 15 1018.7R
SAPELO ISLAND    0200   82      70/  6     1018.0R

$$

ANZ835-935-AMZ111-154-330-350-352-354-370-450-454-472-280400-
...C-MAN AND BUOY OBSERVATIONS...

STATION/POSITION TIME  TEMP    WIND        PRES    WAVE   SWELL
                       AIR SEA DIR/SP/G            HT/PER HT/PER/DIR
                 (UTC) (F)     (DEG/KT/KT) (MB)    (FT/S) (FT/S/D)
BUOY 41004       0250   84 84   80/ 12/ 12 1018.5R   4/ 9   3/120/ 9
BUOY 41008       0250   84 85   80/ 12/ 16 1017.8R   4/ 9   3/110/ 9
FOLLY BEACH CMAN 0200   83      90/ 10/ 12 1019.3R
CAPERS NEARSHORE 0208   83 85  100/  8/ 12 1019.0R
FRIPP NEARSHORE  0208   83 86   80/ 12/ 16 1018.2R


STATION/POSITION TIME  TEMP    WIND        PRES    WAVE   SWELL
                       AIR SEA DIR/SP/G            HT/PER HT/PER/DIR
                 (UTC) (F)     (DEG/KT/KT) (MB)    (FT/S) (FT/S/D)
5E ST. MARYS GA  0201      85                N/A     3/10
FRYING PAN BUOY  0200   83 84   90/  8/ 10 1019.0R
BUOY 41025       0250   80 84  360/  8/  8 1019.9R   3/ 9   3/110/ 9
CAPE LOOKOUT NC  0200   82      60/  4/  5 1019.5R
BUOY 41002       0250   82 84   80/ 12/ 14 1017.5R   4/ 8   3/130/ 8
BUOY 41010       NOT AVBL
ST AUGUSTINE FL  0300   82 84   50/ 10/ 10 1017.5R


$$




USA.gov is the U.S. government's official web portal to all federal, state and local government web resources and services.